Вернуться в каталог

STARLINK-34764

АктивенСвязьVLEO
NORAD 65098·PAYLOAD·🇺🇸 United States

Запущен Aug 4, 2025 с Cape Canaveral Space Force Station

Loading…

Ближайшие Пролёты (ближайшие 24 часа)

TLE

СвежийSource: CelesTrak SupGP

Эпоха: Sep 15, 2026, 02:27 UTC

1 65098C 25167W   26258.10256944 -.00054949  00000+0 -16234-2 0  2581
2 65098  53.1572 222.6887 0001455  96.8961  78.7162 15.34419551    12

Отслеживайте STARLINK-34764 в реальном времени с AllMySat

Download on the App Store